Zurück zum Katalog

STARLINK-31249

AktivKommunikationVLEO
NORAD 58838·PAYLOAD·🇺🇸 United States

Gestartet Jan 24, 2024 von Vandenberg Space Force Base

Loading…

Nächste Überflüge (nächste 24 Stunden)

TLE

AktuellSource: CelesTrak SupGP

Epoche: Sep 15, 2026, 03:06 UTC

1 58838C 24017N   26258.12965278 -.00008070  00000+0 -23848-3 0  2581
2 58838  53.1598  43.0216 0001071  88.2649 127.9824 15.34388943    19

Verfolge STARLINK-31249 in Echtzeit mit AllMySat

Download on the App Store